Amargosa Valley, NV

10:36 PM PST on February 27, 2017 (GMT -0800)
Mercury

Weather History for KDRA - October, 2012

Change the Weather History Date:

Monday, October 29, 2012

  Actual Average Record
Temperature  
Mean Temperature 60 °F 58 °F  
Max Temperature 78 °F 72 °F 85 °F (2008)
Min Temperature 41 °F 44 °F 32 °F (2009)
Degree Days  
Heating Degree Days 6    
Cooling Degree Days 0    
Growing Degree Days 10 (Base 50)    
Moisture  
Dew Point 20 °F    
Average Humidity 23    
Maximum Humidity 40    
Minimum Humidity 5    
Precipitation  
Precipitation 0.00 in 0.02 in 0.13 in (2000)
Month to date precipitation 0.35  
Year to date precipitation 4.92  
Sea Level Pressure  
Sea Level Pressure 30.06 in    
Wind  
Wind Speed 2 mph (NE)    
Max Wind Speed 8 mph    
Max Gust Speed -    
Visibility 10 miles    
Events      
T = Trace of Precipitation, MM = Missing Value Source: NWS Daily Summary

Daily Weather History Graph

Daily Weather History Graph

Search for Another Location

Airport or City:

Trip Planner

Search our weather history database for the weather conditions in past years. The results will help you decide how hot, cold, wet, or windy it might be!

Date:

Astronomy

Oct. 29, 2012 Rise Set
Actual Time 7:05 AM PDT 5:49 PM PDT
Civil Twilight 6:38 AM PDT 6:16 PM PDT
Nautical Twilight 6:08 AM PDT 6:46 PM PDT
Astronomical Twilight 5:38 AM PDT 7:16 PM PDT
Moon 5:45 PM PDT (10/29) 6:58 AM PDT (10/29)
Length of Visible Light 11h 37m
Length of Day
10h 44m
Full, 100% of the Moon is Illuminated
Oct 29
Full
Oct 29
Full
Nov 6
Last Quarter
Nov 13
New
Nov 20
First Quarter

Hourly Weather History & Observations

Time (PDT) Temp. Windchill Dew Point Humidity Pressure Visibility Wind Dir Wind Speed Gust Speed Precip Events Conditions
12:52 AM 48.9 °F - 19.9 °F 32% 30.03 in 10.0 mi Calm Calm - N/A   Clear
1:52 AM 51.1 °F - 19.9 °F 29% 30.02 in 10.0 mi NE 3.5 mph - N/A   Clear
2:52 AM 48.0 °F - 21.0 °F 34% 30.03 in 10.0 mi NE 3.5 mph - N/A   Clear
3:52 AM 48.0 °F - 21.0 °F 34% 30.02 in 10.0 mi Calm Calm - N/A   Clear
4:52 AM 44.1 °F 42.5 °F 21.0 °F 40% 30.04 in 10.0 mi ENE 3.5 mph - N/A   Clear
5:52 AM 46.0 °F - 21.9 °F 39% 30.06 in 10.0 mi Calm Calm - N/A   Clear
6:52 AM 44.1 °F 42.5 °F 21.0 °F 40% 30.09 in 10.0 mi NNW 3.5 mph - N/A   Clear
7:52 AM 48.9 °F - 21.9 °F 35% 30.11 in 10.0 mi Calm Calm - N/A   Clear
8:52 AM 55.9 °F - 21.9 °F 27% 30.13 in 10.0 mi Calm Calm - N/A   Clear
9:52 AM 64.9 °F - 21.9 °F 19% 30.11 in 10.0 mi Calm Calm - N/A   Clear
10:52 AM 71.1 °F - 23.0 °F 16% 30.11 in 10.0 mi NNW 3.5 mph - N/A   Clear
11:52 AM 73.9 °F - 19.9 °F 13% 30.09 in 10.0 mi West 3.5 mph - N/A   Clear
12:52 PM 77.0 °F - 18.0 °F 11% 30.06 in 10.0 mi West 3.5 mph - N/A   Clear
1:52 PM 77.0 °F - 19.0 °F 11% 30.04 in 10.0 mi Calm Calm - N/A   Clear
2:52 PM 78.1 °F - 18.0 °F 10% 30.03 in 10.0 mi SSW 4.6 mph - N/A   Clear
3:52 PM 77.0 °F - 18.0 °F 11% 30.02 in 10.0 mi SW 8.1 mph - N/A   Clear
4:52 PM 75.9 °F - 18.0 °F 11% 30.03 in 10.0 mi WSW 6.9 mph - N/A   Clear
5:52 PM 71.1 °F - 18.0 °F 13% 30.04 in 10.0 mi Calm Calm - N/A   Clear
6:52 PM 63.0 °F - 19.0 °F 18% 30.06 in 10.0 mi East 4.6 mph - N/A   Clear
7:52 PM 61.0 °F - 19.9 °F 21% 30.06 in 10.0 mi East 5.8 mph - N/A   Clear
8:52 PM 57.9 °F - 21.0 °F 24% 30.06 in 10.0 mi Calm Calm - N/A   Clear
9:52 PM 55.0 °F - 21.0 °F 27% 30.07 in 10.0 mi ENE 3.5 mph - N/A   Clear
10:52 PM 51.1 °F - 21.0 °F 31% 30.06 in 10.0 mi NE 4.6 mph - N/A   Clear
11:52 PM 52.0 °F - 21.9 °F 31% 30.05 in 10.0 mi East 3.5 mph - N/A   Clear